Regional Weather Roundup
Issued by NWS

Home | Current Version | Previous Version | Graphics & Text | Print | Product List | Glossary On
Versions: 1 2 3 4 5 6 7 8 9 10 11 12 13 14 15 16 17 18 19 20 21 22 23 24 25 26 27 28 29 30 31 32 33 34 35 36 37 38 39 40 41 42 43 44 45 46 47 48 49 50
366
ASUS44 KLIX 281405
RWRLA
LOUISIANA WEATHER ROUNDUP
NATIONAL WEATHER SERVICE NEW ORLEANS LA
800 AM CST FRI NOV 28 2014

NOTE: "FAIR" INDICATES FEW OR NO CLOUDS BELOW 12,000 FEET WITH NO
      SIGNIFICANT WEATHER AND/OR OBSTRUCTIONS TO VISIBILITY.
      SKY/WX - SKY CONDITION AND SIGNIFICANT WEATHER.
      TMP - AIR TEMPERATURE.    DP   - DEWPOINT TEMPERATURE.
      RH  - RELATIVE HUMIDITY.  PRES - PRESSURE.
      HX  - HEAT INDEX.         WCI  - WIND CHILL INDEX.

*  THESE STATIONS ARE NOT NWS OR FAA STATIONS AND ARE NOT UNDER
   NWS QUALITY CONTROL.

LAZ040-048-061>063-065-066-069-281500-
SOUTHEAST LOUISIANA

CITY           SKY/WX    TMP DP  RH WIND       PRES   REMARKS
N.O. AUDUBON     N/A     47  39  73 MISG        N/A
N.O. INTL ARPT SUNNY     47  36  65 E8        30.43S
N.O. LAKEFRONT SUNNY     46  37  71 E10       30.43F
N.O. DOWNTOWN* FAIR      45  34  65 NE5       30.43S
SLIDELL        SUNNY     37  33  85 N5        30.44S WCI  33
BATON ROUGE    SUNNY     39  33  79 E7        30.44R WCI  34
BOOTHVILLE     SUNNY     53  43  68 NE8       30.42S
BELLE CHASSE   SUNNY     47  37  68 E9        30.42F
BOGALUSA*        N/A     36  33  89 CALM      30.47R
NEW ROADS*     FAIR      40  32  74 E5        30.44S
GONZALES*      FAIR      42  38  86 CALM      30.42S
HAMMOND*       SUNNY     41  32  70 E5        30.45S
HOUMA*         SUNNY     43  39  87 NE5       30.43R
PORT FOURCHON* SUNNY     52  45  76 NE13      30.44S

$$

LAZ041-044-053-054-281500-
SOUTHWEST LOUISIANA

CITY           SKY/WX    TMP DP  RH WIND       PRES   REMARKS
LAKE CHARLES   SUNNY     42  36  79 E6        30.40F
LAFAYETTE      SUNNY     40  35  83 E3        30.42S
PATTERSON      SUNNY     45  39  81 E5        30.44S
SALT POINT       N/A     49  39  68 VRB6      30.41S
NEW IBERIA     SUNNY     42  36  79 E7        30.43S
CHENAULT AIRPK SUNNY     41  37  87 SE6       30.40F

$$

LAZ027-028-281500-
CENTRAL LOUISIANA

CITY           SKY/WX    TMP DP  RH WIND       PRES   REMARKS
FORT POLK      SUNNY     40  34  77 SE8       30.39S
ALEXANDRIA INT SUNNY     38  35  89 E7        30.41S WCI  33
ALEXANDRIA     SUNNY     34  32  92 CALM      30.42F

$$

LAZ001-002-281500-
NORTHWEST LOUISIANA

CITY           SKY/WX    TMP DP  RH WIND       PRES   REMARKS
SHREVEPORT     MOSUNNY   38  34  85 S12       30.36S WCI  30
BARKSDALE AFB  SUNNY     36  33  88 S5        30.37S WCI  32
DTN SHREVEPORT SUNNY     39  33  79 S9        30.37S WCI  33

$$

LAZ014-016-281500-
NORTHEAST LOUISIANA

CITY           SKY/WX    TMP DP  RH WIND       PRES   REMARKS
MONROE         SUNNY     35  32  88 CALM      30.42F
TALLULAH       SUNNY     37  32  82 S7        30.43S WCI  32

$$




USA.gov is the U.S. government's official web portal to all federal, state and local government web resources and services.